COSMOS 1275 DEB, 18637

Orbit data source: Space-Track

COSMOS 1275 DEB, 18637 is space debris in LEO originally from a launch on Thu, 04 Jun 1981 UTC launched from the Plesetsk Missile And Space Complex (PKMTR). Debris objects in space refer to the collection of defunct objects orbiting the Earth. Examples of debris include non-operational satellites, rocket bodies, and fragments generated from explosions, collisions, or faulty payload assembly.

Loading next visibility...
Identifier
18637, 1981-053LX
Orbit
LEO
Country
Flag of CISCIS
Related business
Manufacturer
Unknown
Mission
Spacecraft
Bus & Motor
Unknown
Mass
Unknown
Launch date (UTC)
1981-06-04 (45 years ago)
Launch vehicle
Unknown
Launch site
Plesetsk Missile And Space Complex (PKMTR)
Object type
Payload
Rocket body
Debris
Shape & HBR
Unknown shape, 0.1 m
Radar Cross Section
Medium (>0.1 m² and <1 m²)

Expand to show TLE details & history
Last TLE update: 13 hours ago

TLE from 13 hours ago
0 COSMOS 1275 DEB
1 18637U 81053LX  26264.79587099  .00002166  00000-0  87915-3 0  9994
2 18637  82.9637 186.8825 0044087 194.7574 165.2328 14.26741985110983
Epoch: 2026-09-21T19:06Z
TLE epoch observation values (Epoch: 2026-09-21T19:06:03.253Z)
Latitude
-0.00001°
Longitude
-100.30162°
Altitude
836.242 km
Speed
7.419 km/s
True Right ascension
12h 27m 31s
True Declination
0° 00' 00"
Sunlit
Object was in daylight at epoch
Visualization orbit readout
Latitude
Unknown
Longitude
Unknown
Altitude
Unknown
Speed
Unknown
Apparent Right ascension
Unknown
Apparent Declination
Unknown
Sunlit
N/A
Visualization observer readout
Local Sidereal Time
00:51:02
Azimuth
Unknown
Elevation
Unknown
Doppler factor
Unknown
Orbital elements
Apogee altitude
831.363 km
Perigee altitude
768.073 km
Semi-major axis
7,177.855 km
Eccentricity
0.00441
Inclination
82.9637°
RAAN
186.8825°
Arg. of periapsis
194.7574°
True anomaly
165.36089°
Mean anomaly
165.2328°
Eccentric anomaly
165.29691°
Mean motion
3.56904 °/min
Orbital period
100.87 mins
BSTAR
0.00087915
Loading maneuver chart data...
Computing Atmospheric mass density...

Documentation

Showing up to 5 results
|